This is the latest recevied weather packets stored in our database for station/object YO6SAY-10. If no packets are shown the sender has not sent any weather packets the latest 1 day(s).
| Time | Temp. | Humidity | Pressure | Rain* | Wind** | Luminosity | Snow |
|---|---|---|---|---|---|---|---|
| 1777801530 | 11.11° C | 42% | 955.3 hPa | - | - | - | - |
| 1777800630 | 10.56° C | 44% | 955.3 hPa | - | - | - | - |
| 1777799730 | 10° C | 45% | 955.4 hPa | - | - | - | - |
| 1777798830 | 9.44° C | 46% | 955.4 hPa | - | - | - | - |
| 1777797930 | 9.44° C | 47% | 955.6 hPa | - | - | - | - |
| 1777797027 | 9.44° C | 48% | 955.6 hPa | - | - | - | - |
| 1777796127 | 8.89° C | 49% | 955.5 hPa | - | - | - | - |
| 1777795226 | 8.89° C | 51% | 955.7 hPa | - | - | - | - |
| 1777794326 | 8.89° C | 52% | 955.7 hPa | - | - | - | - |
| 1777793426 | 9.44° C | 53% | 955.7 hPa | - | - | - | - |
| 1777792526 | 8.89° C | 53% | 955.7 hPa | - | - | - | - |
| 1777791626 | 7.78° C | 53% | 955.6 hPa | - | - | - | - |
| 1777790726 | 7.78° C | 53% | 955.7 hPa | - | - | - | - |
| 1777789826 | 8.33° C | 55% | 955.6 hPa | - | - | - | - |
| 1777788926 | 8.89° C | 55% | 955.6 hPa | - | - | - | - |
| 1777788025 | 9.44° C | 54% | 955.7 hPa | - | - | - | - |
| 1777787125 | 8.89° C | 53% | 955.6 hPa | - | - | - | - |
| 1777786225 | 8.89° C | 54% | 955.6 hPa | - | - | - | - |
| 1777785325 | 8.89° C | 54% | 955.6 hPa | - | - | - | - |
| 1777784425 | 8.89° C | 54% | 955.6 hPa | - | - | - | - |
| 1777783525 | 8.89° C | 54% | 955.4 hPa | - | - | - | - |
| 1777782625 | 8.89° C | 54% | 955.4 hPa | - | - | - | - |
| 1777781724 | 8.33° C | 54% | 955.2 hPa | - | - | - | - |
| 1777780824 | 8.33° C | 54% | 955 hPa | - | - | - | - |
| 1777779924 | 8.33° C | 55% | 955 hPa | - | - | - | - |
* Rain since midnight (hover to see other rain measurements)
** Current wind speed in m/s (hover to see current wind gust speed)